| time (UTC) | temp C | wind direction | speed KPH | gust KPH | rain 1hr cm | rain 24hr cm | rain mn cm | humidity % | barometer mb |
| 20260507200043 | 16 | 230 | 3.2 | 22.5 | 0.00 | 0.56 | 0.00 | 32 | 1002.5 |
| 20260507194542 | 16 | 55 | 3.2 | 19.3 | 0.00 | 0.84 | 0.00 | 33 | 1002.5 |
| 20260507193048 | 15 | 319 | 0.0 | 8.0 | 0.00 | 0.84 | 0.00 | 39 | 1002.6 |
| 20260507191541 | 15 | 229 | 0.0 | 11.3 | 0.00 | 0.84 | 0.00 | 40 | 1002.7 |
| 20260507190041 | 15 | 227 | 0.0 | 8.0 | 0.00 | 0.84 | 0.00 | 37 | 1002.9 |
| 20260507184541 | 15 | 192 | 0.0 | 8.0 | 0.00 | 1.91 | 0.00 | 41 | 1002.8 |
| 20260507183038 | 16 | 203 | 1.6 | 19.3 | 0.00 | 1.91 | 0.00 | 35 | 1002.8 |
| 20260507181538 | 16 | 243 | 1.6 | 16.1 | 0.00 | 1.91 | 0.00 | 35 | 1002.9 |
| 20260507180037 | 16 | 254 | 1.6 | 22.5 | 0.00 | 1.91 | 0.00 | 37 | 1003.0 |
| 20260507174546 | 16 | 223 | 1.6 | 14.5 | 0.00 | 1.91 | 0.00 | 42 | 1002.9 |
| 20260507173033 | 15 | 152 | 8.0 | 22.5 | 0.00 | 1.91 | 0.00 | 44 | 1003.3 |
| 20260507171542 | 15 | 269 | 1.6 | 25.7 | 0.00 | 1.91 | 0.00 | 47 | 1003.3 |
| 20260507170032 | 15 | 182 | 3.2 | 14.5 | 0.00 | 1.91 | 0.00 | 48 | 1003.6 |
| 20260507164534 | 15 | 192 | 0.0 | 19.3 | 0.00 | 1.91 | 0.00 | 52 | 1003.8 |
| 20260507163029 | 15 | 187 | 1.6 | 14.5 | 0.00 | 1.91 | 0.00 | 50 | 1003.7 |
| 20260507161530 | 14 | 174 | 3.2 | 17.7 | 0.00 | 1.91 | 0.00 | 51 | 1003.8 |
| 20260507160031 | 15 | 276 | 1.6 | 24.1 | 0.00 | 1.91 | 0.00 | 49 | 1004.1 |
| 20260507154527 | 15 | 192 | 0.0 | 14.5 | 0.00 | 1.91 | 0.00 | 55 | 1004.3 |
| 20260507153028 | 15 | 265 | 1.6 | 19.3 | 0.00 | 1.91 | 0.00 | 53 | 1004.2 |
| 20260507151524 | 15 | 270 | 4.8 | 19.3 | 0.00 | 1.91 | 0.00 | 54 | 1004.2 |
| 20260507150023 | 14 | 229 | 4.8 | 27.4 | 0.00 | 1.91 | 0.00 | 52 | 1004.2 |
| 20260507144522 | 15 | 257 | 0.0 | 14.5 | 0.00 | 1.91 | 0.00 | 55 | 1004.1 |
| 20260507143023 | 15 | 222 | 0.0 | 19.3 | 0.00 | 1.91 | 0.00 | 51 | 1004.0 |
| 20260507141522 | 15 | 246 | 1.6 | 11.3 | 0.00 | 1.91 | 0.00 | 55 | 1004.0 |
| 20260507140032 | 14 | 282 | 1.6 | 14.5 | 0.00 | 1.91 | 0.00 | 59 | 1004.2 |
| 20260507134517 | 14 | 223 | 1.6 | 6.4 | 0.00 | 1.91 | 0.00 | 58 | 1004.3 |
| 20260507133014 | 13 | 279 | 3.2 | 14.5 | 0.00 | 1.91 | 0.00 | 56 | 1004.5 |
| 20260507131512 | 12 | 294 | 1.6 | 16.1 | 0.00 | 1.91 | 0.00 | 61 | 1004.5 |
| 20260507130006 | 12 | 13 | 0.0 | 14.5 | 0.00 | 1.91 | 0.00 | 61 | 1004.7 |
| 20260507124505 | 12 | 215 | 0.0 | 14.5 | 0.00 | 1.91 | 0.00 | 67 | 1004.8 |
| 20260507123106 | 11 | 311 | 0.0 | 12.9 | 0.00 | 1.91 | 0.00 | 71 | 1004.8 |
| 20260507121600 | 11 | 101 | 0.0 | 3.2 | 0.00 | 1.91 | 0.00 | 74 | 1004.8 |
| 20260507120057 | 11 | 216 | 1.6 | 16.1 | 0.00 | 1.91 | 0.00 | 76 | 1004.8 |
| 20260507114556 | 10 | 11 | 4.8 | 14.5 | 0.00 | 1.91 | 0.00 | 78 | 1004.8 |
| 20260507113127 | 8 | 300 | 0.0 | 9.7 | 0.00 | 1.91 | 0.00 | 85 | 1004.7 |
| 20260507111553 | 8 | 208 | 0.0 | 0.0 | 0.00 | 1.91 | 0.00 | 89 | 1004.6 |
| 20260507110052 | 8 | 208 | 0.0 | 4.8 | 0.00 | 1.91 | 0.00 | 89 | 1005.0 |
| 20260507104600 | 8 | 228 | 0.0 | 6.4 | 0.00 | 1.91 | 0.00 | 90 | 1005.1 |
| 20260507103049 | 7 | 239 | 0.0 | 3.2 | 0.00 | 1.91 | 0.00 | 91 | 1005.0 |
| 20260507101553 | 7 | 248 | 0.0 | 0.0 | 0.00 | 1.91 | 0.00 | 91 | 1004.8 |
| 20260507100055 | 7 | 242 | 0.0 | 6.4 | 0.00 | 1.91 | 0.00 | 92 | 1004.8 |
| 20260507094545 | 7 | 215 | 0.0 | 6.4 | 0.00 | 1.91 | 0.00 | 92 | 1004.7 |
| 20260507093042 | 7 | 221 | 0.0 | 0.0 | 0.00 | 1.91 | 0.00 | 92 | 1004.7 |
| 20260507091543 | 8 | 278 | 0.0 | 1.6 | 0.00 | 1.91 | 0.00 | 91 | 1004.4 |
| 20260507090041 | 8 | 302 | 0.0 | 3.2 | 0.00 | 1.91 | 0.00 | 91 | 1004.0 |
| 20260507084550 | 8 | 313 | 0.0 | 1.6 | 0.00 | 1.91 | 0.00 | 91 | 1004.6 |
| 20260507083036 | 8 | 234 | 0.0 | 3.2 | 0.00 | 1.91 | 0.00 | 91 | 1004.1 |
| 20260507081534 | 8 | 198 | 0.0 | 4.8 | 0.00 | 1.91 | 0.00 | 91 | 1004.6 |
| 20260507080032 | 8 | 283 | 0.0 | 8.0 | 0.00 | 1.91 | 0.00 | 91 | 1003.7 |
| 20260507074532 | 8 | 232 | 0.0 | 6.4 | 0.00 | 1.91 | 0.00 | 91 | 1004.1 |
| 20260507073029 | 8 | 278 | 0.0 | 4.8 | 0.00 | 1.91 | 0.00 | 91 | 1003.8 |
| 20260507071529 | 8 | 273 | 1.6 | 14.5 | 0.00 | 1.91 | 0.00 | 91 | 1003.8 |
| 20260507070025 | 8 | 220 | 0.0 | 6.4 | 0.00 | 1.91 | 0.00 | 92 | 1003.6 |
| 20260507064522 | 8 | 227 | 0.0 | 8.0 | 0.00 | 1.91 | 0.00 | 92 | 1003.7 |
| 20260507063017 | 9 | 126 | 0.0 | 6.4 | 0.00 | 1.91 | 0.00 | 92 | 1003.4 |
| 20260507061514 | 9 | 211 | 0.0 | 8.0 | 0.00 | 1.91 | 0.00 | 93 | 1003.3 |
| 20260507060020 | 10 | 198 | 0.0 | 0.0 | 0.00 | 1.91 | 0.00 | 93 | 1003.2 |
| 20260507054510 | 10 | 198 | 0.0 | 3.2 | 0.00 | 1.91 | 0.00 | 92 | 1003.1 |
| 20260507053008 | 10 | 194 | 0.0 | 3.2 | 0.00 | 1.91 | 0.00 | 92 | 1003.1 |
| 20260507051507 | 10 | 342 | 0.0 | 11.3 | 0.00 | 1.91 | 0.00 | 92 | 1002.6 |
| 20260507050013 | 10 | 217 | 0.0 | 9.7 | 0.00 | 1.91 | 0.00 | 92 | 1002.9 |
| 20260507044502 | 10 | 211 | 1.6 | 12.9 | 0.05 | 1.91 | 0.00 | 92 | 1002.8 |
| 20260507043058 | 10 | 204 | 3.2 | 12.9 | 0.10 | 1.91 | 0.00 | 91 | 1002.3 |
| 20260507041555 | 11 | 246 | 4.8 | 16.1 | 0.10 | 1.91 | 0.00 | 92 | 1002.2 |
| 20260507040056 | 11 | 259 | 0.0 | 16.1 | 0.13 | 1.91 | 0.00 | 92 | 1002.2 |
| 20260507034549 | 12 | 188 | 4.8 | 20.9 | 0.08 | 1.85 | 1.85 | 90 | 1002.2 |
| 20260507033047 | 12 | 234 | 1.6 | 11.3 | 0.03 | 1.80 | 1.80 | 91 | 1002.5 |
| 20260507031544 | 13 | 280 | 3.2 | 11.3 | 0.05 | 1.80 | 1.80 | 92 | 1002.2 |
| 20260507030045 | 13 | 231 | 0.0 | 6.4 | 0.03 | 1.78 | 1.78 | 92 | 1002.0 |
| 20260507024547 | 13 | 242 | 3.2 | 12.9 | 0.03 | 1.78 | 1.78 | 92 | 1002.1 |
| 20260507023042 | 14 | 277 | 4.8 | 11.3 | 0.03 | 1.78 | 1.78 | 92 | 1002.2 |
| 20260507021554 | 15 | 198 | 0.0 | 8.0 | 0.00 | 1.75 | 1.75 | 94 | 1002.0 |
| 20260507020042 | 15 | 142 | 1.6 | 8.0 | 0.00 | 1.75 | 1.75 | 94 | 1002.0 |
| 20260507014541 | 15 | 169 | 3.2 | 14.5 | 0.03 | 1.75 | 1.75 | 94 | 1002.1 |
| 20260507013040 | 15 | 149 | 0.0 | 16.1 | 0.03 | 1.75 | 1.75 | 93 | 1002.2 |
| 20260507011543 | 15 | 223 | 3.2 | 12.9 | 0.03 | 1.75 | 1.75 | 93 | 1002.2 |
| 20260507010044 | 15 | 231 | 0.0 | 11.3 | 0.03 | 1.75 | 1.75 | 94 | 1002.2 |
| 20260507004540 | 15 | 200 | 0.0 | 6.4 | 0.00 | 1.73 | 1.73 | 94 | 1002.2 |
| 20260507003037 | 15 | 153 | 0.0 | 8.0 | 0.00 | 1.73 | 1.73 | 93 | 1002.2 |
| 20260507001537 | 15 | 137 | 4.8 | 14.5 | 0.00 | 1.73 | 1.73 | 93 | 1002.1 |
| 20260507000037 | 15 | 144 | 0.0 | 8.0 | 0.00 | 1.73 | 1.73 | 93 | 1001.9 |
| 20260506234538 | 15 | 136 | 1.6 | 14.5 | 0.00 | 1.73 | 1.73 | 93 | 1002.0 |
| 20260506233033 | 15 | 150 | 3.2 | 17.7 | 0.00 | 1.73 | 1.73 | 94 | 1002.1 |
| 20260506231531 | 15 | 267 | 0.0 | 22.5 | 0.00 | 1.73 | 1.73 | 94 | 1002.2 |
| 20260506230034 | 15 | 159 | 3.2 | 11.3 | 0.00 | 1.73 | 1.73 | 94 | 1002.3 |
| 20260506224531 | 15 | 225 | 3.2 | 12.9 | 0.00 | 1.73 | 1.73 | 94 | 1002.3 |
| 20260506223030 | 15 | 169 | 1.6 | 14.5 | 0.03 | 1.73 | 1.73 | 95 | 1002.4 |
| 20260506221529 | 15 | 144 | 4.8 | 14.5 | 0.05 | 1.73 | 1.73 | 95 | 1002.3 |
| 20260506220034 | 15 | 140 | 0.0 | 11.3 | 0.10 | 1.73 | 1.73 | 95 | 1002.5 |
| 20260506214526 | 15 | 222 | 1.6 | 12.9 | 0.13 | 1.73 | 1.73 | 94 | 1002.6 |
| 20260506213029 | 15 | 159 | 0.0 | 12.9 | 0.18 | 1.70 | 1.70 | 94 | 1002.7 |
| 20260506211527 | 15 | 151 | 0.0 | 8.0 | 0.28 | 1.68 | 1.68 | 94 | 1002.9 |
| 20260506210028 | 15 | 155 | 1.6 | 9.7 | 0.28 | 1.63 | 1.63 | 94 | 1003.2 |
| 20260506204526 | 15 | 128 | 3.2 | 12.9 | 0.28 | 1.60 | 1.60 | 94 | 1003.1 |
| 20260506203027 | 15 | 138 | 0.0 | 11.3 | 0.20 | 1.50 | 1.50 | 93 | 1003.2 |
| 20260506201521 | 16 | 158 | 0.0 | 0.0 | 0.15 | 1.37 | 1.37 | 93 | 1003.2 |